VK2OU Weather Reports


time (UTC)temp
C
wind
direction
speed
KPH
gust
KPH
rain 1hr
cm
rain 24hr
cm
rain mn
cm
humidity
%
barometer
mb
20260503213525 13 303 8.0 14.5 0.00 0.00 0.00 98
20260503212533 13 315 0.0 1.6 0.00 0.43 0.43 99
20260503211521 13 0.0 0.0 0.00 0.43 0.43 99
20260503210530 13 295 9.7 20.9 0.00 0.00 0.00 99
20260503205539 13 0.0 0.0 0.00 0.43 0.43 99
20260503205521 13 282 4.8 12.9 0.00 0.00 0.00 99
20260503204534 13 291 6.4 14.5 0.00 0.00 0.00 99
20260503204526 13 0.0 0.0 0.00 0.43 0.43 99
20260503203554 13 0.0 0.0 0.00 0.43 0.43 99
20260503203548 13 286 4.8 12.9 0.00 0.00 0.00 99
20260503202529 13 303 4.8 12.9 0.00 0.00 0.00 99
20260503202523 13 0.0 0.0 0.03 0.43 0.43 99
20260503201531 13 0.0 0.0 0.03 0.43 0.43 99
20260503201521 13 277 4.8 9.7 0.00 0.00 0.00 99
20260503200529 13 287 6.4 17.7 0.00 0.00 0.00 99
20260503200522 13 0.0 0.0 0.03 0.43 0.43 99
20260503195549 13 0.0 0.0 0.03 0.43 0.43 99
20260503195545 13 289 4.8 11.3 0.00 0.00 0.00 99
20260503194536 13 0.0 0.0 0.03 0.43 0.43 99
20260503194534 13 283 6.4 16.1 0.00 0.00 0.00 99
20260503193546 13 0.0 0.0 0.03 0.43 0.43 99
20260503193542 13 256 3.2 8.0 0.00 0.00 0.00 99
20260503192534 13 0.0 0.0 0.00 0.41 0.41 99
20260503192529 13 268 3.2 4.8 0.00 0.00 0.00 98
20260503191523 13 0.0 0.0 0.00 0.41 0.41 99
20260503191521 13 273 3.2 9.7 0.00 0.00 0.00 98
20260503190531 13 0.0 0.0 0.03 0.41 0.41 99
20260503190529 13 268 3.2 9.7 0.00 0.00 0.00 98
20260503185522 13 266 3.2 9.7 0.00 0.00 0.00 98
20260503184529 13 256 3.2 8.0 0.00 0.00 0.00 98
20260503183535 13 0.0 0.0 0.08 0.41 0.41 99
20260503183521 13 284 6.4 14.5 0.00 0.00 0.00 98
20260503182549 13 273 4.8 11.3 0.00 0.00 0.00 98
20260503182544 13 0.0 0.0 0.10 0.41 0.41 99
20260503181553 13 0.0 0.0 0.10 0.41 0.41 99
20260503181523 13 269 4.8 12.9 0.00 0.00 0.00 98
20260503180549 13 267 3.2 9.7 0.00 0.00 0.00 98
20260503180545 13 0.0 0.0 0.08 0.38 0.38 99
20260503175530 13 0.0 0.0 0.08 0.38 0.38 99
20260503175521 13 274 3.2 8.0 0.00 0.00 0.00 98
20260503174529 13 276 3.2 8.0 0.00 0.00 0.00 98
20260503174520 13 0.0 0.0 0.08 0.36 0.36 99
20260503173548 13 0.0 0.0 0.08 0.33 0.33 99
20260503173523 13 280 4.8 14.5 0.00 0.00 0.00 98
20260503172535 13 0.0 0.0 0.05 0.30 0.30 99
20260503172532 13 267 4.8 9.7 0.00 0.00 0.00 98
20260503171525 13 0.0 0.0 0.08 0.30 0.30 99
20260503171522 13 274 6.4 12.9 0.00 0.00 0.00 98
20260503170613 13 0.0 0.0 0.10 0.30 0.30 99
20260503150534 14 0.0 0.0 0.15 0.15 0.15 99
20260503150529 14 285 4.8 11.3 0.00 0.00 0.00 96
20260503130536 15 0.0 0.0 0.00 0.00 0.00 99
20260503130534 15 263 4.8 9.7 0.00 0.00 0.00 87
20260503110531 15 236 1.6 3.2 0.00 0.00 0.00 89
20260503081525 16 251 3.2 8.0 0.00 0.00 0.00 77
20260503081028 16 0.0 0.0 0.00 0.00 0.00 99
20260503080529 16 246 4.8 11.3 0.00 0.00 0.00 76
20260503072550 16 0.0 0.0 0.00 0.00 0.00 75
20260503071522 17 0.0 0.0 0.00 0.00 0.00 74
20260503070530 17 0.0 0.0 0.00 0.00 0.00 73
20260503054529 18 277 3.2 8.0 0.00 0.00 0.00 67
20260503053522 18 273 4.8 9.7 0.00 0.00 0.00 66
20260503052530 19 286 9.7 20.9 0.00 0.00 0.00 64
20260503051536 20 0.0 0.0 0.00 0.00 0.00 99
20260503051522 19 280 6.4 17.7 0.00 0.00 0.00 64
20260503050530 19 258 3.2 9.7 0.00 0.00 0.00 64
20260503050525 20 0.0 0.0 0.00 0.00 0.00 99
20260503045526 20 249 6.4 17.7 0.00 0.00 0.00 64
20260503044530 20 275 4.8 9.7 0.00 0.00 0.00 63
20260503044026 21 0.0 0.0 0.00 0.00 0.00 99
20260503043522 20 286 6.4 12.9 0.00 0.00 0.00 61
20260503043055 20 0.0 0.0 0.00 0.00 0.00 99
20260503042530 20 320 4.8 9.7 0.00 0.00 0.00 61
20260503042252 -17 0.0 0.0 0.00 0.00 0.00
20260503041524 19 266 6.4 17.7 0.00 0.00 0.00 64
20260503041032 20 0.0 0.0 0.00 0.00 0.00 99
20260503040531 19 292 6.4 16.1 0.00 0.00 0.00 64
20260503040021 20 0.0 0.0 0.00 0.00 0.00 99
20260503035522 21 297 6.4 12.9 0.00 0.00 0.00 59
20260503034915 21 0.0 1.6 0.00 0.00 0.00 99
20260503034530 20 295 9.7 24.1 0.00 0.00 0.00 60
20260503033524 20 305 6.4 14.5 0.00 0.00 0.00 59
20260503032608 21 0.0 0.0 0.00 0.00 0.00 99
20260503032531 21 311 8.0 16.1 0.00 0.00 0.00 58
20260503031522 21 0.0 0.0 0.00 0.00 0.00 99
20260503030613 19 277 6.4 12.9 0.00 0.00 0.00 62
20260503030527 21 0.0 0.0 0.00 0.00 0.00 99
20260503025535 21 338 0.0 6.4 0.00 0.00 0.00 99
20260503025526 20 299 6.4 11.3 0.00 0.00 0.00 61
20260503024530 19 291 9.7 24.1 0.00 0.00 0.00 63
20260503024525 20 274 1.6 11.3 0.00 0.00 0.00 99
20260503023552 20 0.0 0.0 0.00 0.00 0.00 99
20260503023544 19 288 6.4 14.5 0.00 0.00 0.00 64
20260503022530 18 294 6.4 12.9 0.00 0.00 0.00 63
20260503022522 20 0.0 0.0 0.00 0.00 0.00 99
20260503021529 20 315 1.6 8.0 0.00 0.00 0.00 99
20260503021523 19 318 8.0 17.7 0.00 0.00 0.00 63
20260503020537 20 288 1.6 8.0 0.00 0.00 0.00 99
20260503020530 18 290 6.4 16.1 0.00 0.00 0.00 65
20260503015526 19 0.0 0.0 0.00 0.00 0.00 99
20260503014615 20 0.0 0.0 0.00 0.00 0.00 99
20260503014613 18 305 8.0 17.7 0.00 0.00 0.00 65
20260503013524 20 0.0 0.0 0.00 0.00 0.00 99
20260503013522 18 288 3.2 9.7 0.00 0.00 0.00 66
20260503012531 20 0.0 0.0 0.00 0.00 0.00 99
20260503011625 18 0.0 0.0 0.00 0.00 0.00 99
20260503010530 17 20 1.6 8.0 0.00 0.00 0.00 73
20260503005541 18 0.0 0.0 0.00 0.00 0.00 99
20260503005522 16 319 1.6 4.8 0.00 0.00 0.00 74
20260503004530 16 17 3.2 4.8 0.00 0.00 0.00 78
20260503004526 17 0.0 0.0 0.00 0.00 0.00 99
20260503003615 16 0.0 0.0 0.00 0.00 0.00 99
20260503003542 15 57 1.6 4.8 0.00 0.00 0.00 79
20260503002530 15 91 1.6 4.8 0.00 0.00 0.00 79
20260503002525 16 0.0 0.0 0.00 0.00 0.00 99
20260503001551 15 0.0 0.0 0.00 0.00 0.00 99
20260503001542 15 176 0.0 1.6 0.00 0.00 0.00 81
20260503000530 15 69 1.6 4.8 0.00 0.00 0.00 81
20260503000525 16 0.0 0.0 0.00 0.00 0.00 99
20260502235529 15 0.0 0.0 0.00 0.00 0.00 99
20260502235526 15 55 0.0 3.2 0.00 0.00 0.00 80
20260502234536 15 0.0 0.0 0.00 0.00 0.00 99
20260502234530 15 233 0.0 1.6 0.00 0.00 0.00 81
20260502233526 15 0.0 0.0 0.00 0.00 0.00 99
20260502233524 15 307 1.6 4.8 0.00 0.00 0.00 80
20260502232533 15 0.0 0.0 0.00 0.00 0.00 99
20260502232530 14 0.0 0.0 0.00 0.00 0.00 82
20260502231526 15 0.0 0.0 0.00 0.00 0.00 99
20260502231522 14 171 0.0 1.6 0.00 0.00 0.00 82
20260502230532 14 0.0 0.0 0.00 0.00 0.00 83
20260502225524 15 0.0 0.0 0.00 0.00 0.00 99
20260502224531 14 0.0 0.0 0.00 0.00 0.00 99
20260502223536 13 0.0 0.0 0.00 0.00 0.00 99
20260502223524 13 165 0.0 1.6 0.00 0.00 0.00 86
20260502222531 13 120 0.0 1.6 0.00 0.00 0.00 86
20260502222526 13 0.0 0.0 0.00 0.00 0.00 99
20260502221522 13 239 0.0 1.6 0.00 0.00 0.00 88
20260502220532 12 94 0.0 4.8 0.00 0.00 0.00 88
20260502215523 12 206 3.2 4.8 0.00 0.00 0.00 89
20260502215034 12 0.0 0.0 0.00 0.00 0.00 99
20260502214530 12 247 1.6 4.8 0.00 0.00 0.00 91